Year,Month,Day,Hour,Minute,Value (Times are PST for temperature in C)
2014,07,16,00,00,22.40
2014,07,16,00,01,22.30
2014,07,16,00,02,22.30
2014,07,16,00,03,22.30
2014,07,16,00,04,22.30
2014,07,16,00,05,22.20
2014,07,16,00,06,22.20
2014,07,16,00,07,22.20
2014,07,16,00,08,22.20
2014,07,16,00,09,22.10
2014,07,16,00,10,22.10
2014,07,16,00,11,22.10
2014,07,16,00,12,22.00
2014,07,16,00,13,22.00
2014,07,16,00,14,22.00
2014,07,16,00,15,21.90
2014,07,16,00,16,21.90
2014,07,16,00,17,21.90
2014,07,16,00,18,21.90
2014,07,16,00,19,21.90
2014,07,16,00,20,21.90
2014,07,16,00,21,21.90
2014,07,16,00,22,21.90
2014,07,16,00,23,21.90
2014,07,16,00,24,21.80
2014,07,16,00,25,21.80
2014,07,16,00,26,21.80
2014,07,16,00,27,21.80
2014,07,16,00,28,21.80
2014,07,16,00,29,21.80
2014,07,16,00,30,21.80
2014,07,16,00,31,21.80
2014,07,16,00,32,21.80
2014,07,16,00,33,21.80
2014,07,16,00,34,21.80
2014,07,16,00,35,21.80
2014,07,16,00,36,21.80
2014,07,16,00,37,21.80
2014,07,16,00,38,21.70
2014,07,16,00,39,21.70
2014,07,16,00,40,21.70
2014,07,16,00,41,21.70
2014,07,16,00,42,21.70
2014,07,16,00,43,21.70
2014,07,16,00,44,21.70
2014,07,16,00,45,21.60
2014,07,16,00,46,21.60
2014,07,16,00,47,21.60
2014,07,16,00,48,21.60
2014,07,16,00,49,21.50
2014,07,16,00,50,21.50
2014,07,16,00,51,21.50
2014,07,16,00,52,21.40
2014,07,16,00,53,21.40
2014,07,16,00,54,21.30
2014,07,16,00,55,21.30
2014,07,16,00,56,21.30
2014,07,16,00,57,21.20
2014,07,16,00,58,21.20
2014,07,16,00,59,21.10
2014,07,16,01,00,21.10
2014,07,16,01,01,21.10
2014,07,16,01,02,21.00
2014,07,16,01,03,21.00
2014,07,16,01,04,20.90
2014,07,16,01,05,20.90
2014,07,16,01,06,20.90
2014,07,16,01,07,20.90
2014,07,16,01,08,20.90
2014,07,16,01,09,20.80
2014,07,16,01,10,20.80
2014,07,16,01,11,20.80
2014,07,16,01,12,20.80
2014,07,16,01,13,20.80
2014,07,16,01,14,20.80
2014,07,16,01,15,20.70
2014,07,16,01,16,20.70
2014,07,16,01,17,20.70
2014,07,16,01,18,20.70
2014,07,16,01,19,20.70
2014,07,16,01,20,20.70
2014,07,16,01,21,20.60
2014,07,16,01,22,20.60
2014,07,16,01,23,20.60
2014,07,16,01,24,20.60
2014,07,16,01,25,20.50
2014,07,16,01,26,20.50
2014,07,16,01,27,20.50
2014,07,16,01,28,20.40
2014,07,16,01,29,20.40
2014,07,16,01,30,20.40
2014,07,16,01,31,20.40
2014,07,16,01,32,20.40
2014,07,16,01,33,20.40
2014,07,16,01,34,20.40
2014,07,16,01,35,20.40
2014,07,16,01,36,20.40
2014,07,16,01,37,20.40
2014,07,16,01,38,20.40
2014,07,16,01,39,20.40
2014,07,16,01,40,20.40
2014,07,16,01,41,20.40
2014,07,16,01,42,20.40
2014,07,16,01,43,20.40
2014,07,16,01,44,20.40
2014,07,16,01,45,20.40
2014,07,16,01,46,20.40
2014,07,16,01,47,20.30
2014,07,16,01,48,20.30
2014,07,16,01,49,20.30
2014,07,16,01,50,20.30
2014,07,16,01,51,20.30
2014,07,16,01,52,20.30
2014,07,16,01,53,20.30
2014,07,16,01,54,20.20
2014,07,16,01,55,20.20
2014,07,16,01,56,20.20
2014,07,16,01,57,20.20
2014,07,16,01,58,20.20
2014,07,16,01,59,20.20
2014,07,16,02,00,20.10
2014,07,16,02,01,20.10
2014,07,16,02,02,20.10
2014,07,16,02,03,20.10
2014,07,16,02,04,20.00
2014,07,16,02,05,20.00
2014,07,16,02,06,19.90
2014,07,16,02,07,19.90
2014,07,16,02,08,19.90
2014,07,16,02,09,19.80
2014,07,16,02,10,19.80
2014,07,16,02,11,19.80
2014,07,16,02,12,19.80
2014,07,16,02,13,19.70
2014,07,16,02,14,19.70
2014,07,16,02,15,19.70
2014,07,16,02,16,19.70
2014,07,16,02,17,19.60
2014,07,16,02,18,19.60
2014,07,16,02,19,19.50
2014,07,16,02,20,19.50
2014,07,16,02,21,19.40
2014,07,16,02,22,19.40
2014,07,16,02,23,19.40
2014,07,16,02,24,19.40
2014,07,16,02,25,19.30
2014,07,16,02,26,19.30
2014,07,16,02,27,19.30
2014,07,16,02,28,19.30
2014,07,16,02,29,19.30
2014,07,16,02,30,19.30
2014,07,16,02,31,19.20
2014,07,16,02,32,19.20
2014,07,16,02,33,19.20
2014,07,16,02,34,19.20
2014,07,16,02,35,19.20
2014,07,16,02,36,19.20
2014,07,16,02,37,19.20
2014,07,16,02,38,19.20
2014,07,16,02,39,19.10
2014,07,16,02,40,19.10
2014,07,16,02,41,19.10
2014,07,16,02,42,19.10
2014,07,16,02,43,19.00
2014,07,16,02,44,19.00
2014,07,16,02,45,18.90
2014,07,16,02,46,18.90
2014,07,16,02,47,18.90
2014,07,16,02,48,18.80
2014,07,16,02,49,18.80
2014,07,16,02,50,18.70
2014,07,16,02,51,18.70
2014,07,16,02,52,18.70
2014,07,16,02,53,18.60
2014,07,16,02,54,18.60
2014,07,16,02,55,18.50
2014,07,16,02,56,18.50
2014,07,16,02,57,18.40
2014,07,16,02,58,18.40
2014,07,16,02,59,18.40
2014,07,16,03,00,18.30
2014,07,16,03,01,18.30
2014,07,16,03,02,18.30
2014,07,16,03,03,18.20
2014,07,16,03,04,18.20
2014,07,16,03,05,18.20
2014,07,16,03,06,18.10
2014,07,16,03,07,18.10
2014,07,16,03,08,18.10
2014,07,16,03,09,18.10
2014,07,16,03,10,18.00
2014,07,16,03,11,18.00
2014,07,16,03,12,17.90
2014,07,16,03,13,17.90
2014,07,16,03,14,17.90
2014,07,16,03,15,17.80
2014,07,16,03,16,17.80
2014,07,16,03,17,17.80
2014,07,16,03,18,17.80
2014,07,16,03,19,17.70
2014,07,16,03,20,17.70
2014,07,16,03,21,17.70
2014,07,16,03,22,17.70
2014,07,16,03,23,17.60
2014,07,16,03,24,17.60
2014,07,16,03,25,17.60
2014,07,16,03,26,17.50
2014,07,16,03,27,17.50
2014,07,16,03,28,17.40
2014,07,16,03,29,17.40
2014,07,16,03,30,17.40
2014,07,16,03,31,17.40
2014,07,16,03,32,17.30
2014,07,16,03,33,17.30
2014,07,16,03,34,17.30
2014,07,16,03,35,17.30
2014,07,16,03,36,17.30
2014,07,16,03,37,17.20
2014,07,16,03,38,17.20
2014,07,16,03,39,17.20
2014,07,16,03,40,17.20
2014,07,16,03,41,17.10
2014,07,16,03,42,17.10
2014,07,16,03,43,17.10
2014,07,16,03,44,17.10
2014,07,16,03,45,17.10
2014,07,16,03,46,17.00
2014,07,16,03,47,17.00
2014,07,16,03,48,17.00
2014,07,16,03,49,16.90
2014,07,16,03,50,16.90
2014,07,16,03,51,16.90
2014,07,16,03,52,16.90
2014,07,16,03,53,16.90
2014,07,16,03,54,16.80
2014,07,16,03,55,16.80
2014,07,16,03,56,16.80
2014,07,16,03,57,16.80
2014,07,16,03,58,16.80
2014,07,16,03,59,16.80
2014,07,16,04,00,16.70
2014,07,16,04,01,16.70
2014,07,16,04,02,16.70
2014,07,16,04,03,16.70
2014,07,16,04,04,16.70
2014,07,16,04,05,16.60
2014,07,16,04,06,16.60
2014,07,16,04,07,16.60
2014,07,16,04,08,16.50
2014,07,16,04,09,16.50
2014,07,16,04,10,16.50
2014,07,16,04,11,16.40
2014,07,16,04,12,16.40
2014,07,16,04,13,16.40
2014,07,16,04,14,16.40
2014,07,16,04,15,16.30
2014,07,16,04,16,16.30
2014,07,16,04,17,16.30
2014,07,16,04,18,16.30
2014,07,16,04,19,16.20
2014,07,16,04,20,16.20
2014,07,16,04,21,16.20
2014,07,16,04,22,16.20
2014,07,16,04,23,16.10
2014,07,16,04,24,16.10
2014,07,16,04,25,16.10
2014,07,16,04,26,16.10
2014,07,16,04,27,16.10
2014,07,16,04,28,16.00
2014,07,16,04,29,16.00
2014,07,16,04,30,16.00
2014,07,16,04,31,16.00
2014,07,16,04,32,15.90
2014,07,16,04,33,15.90
2014,07,16,04,34,15.90
2014,07,16,04,35,15.90
2014,07,16,04,36,15.90
2014,07,16,04,37,15.90
2014,07,16,04,38,15.90
2014,07,16,04,39,15.90
2014,07,16,04,40,15.80
2014,07,16,04,41,15.80
2014,07,16,04,42,15.80
2014,07,16,04,43,15.80
2014,07,16,04,44,15.80
2014,07,16,04,45,15.80
2014,07,16,04,46,15.80
2014,07,16,04,47,15.70
2014,07,16,04,48,15.70
2014,07,16,04,49,15.70
2014,07,16,04,50,15.70
2014,07,16,04,51,15.70
2014,07,16,04,52,15.70
2014,07,16,04,53,15.60
2014,07,16,04,54,15.60
2014,07,16,04,55,15.60
2014,07,16,04,56,15.60
2014,07,16,04,57,15.60
2014,07,16,04,58,15.60
2014,07,16,04,59,15.60
2014,07,16,05,00,15.60
2014,07,16,05,01,15.50
2014,07,16,05,02,15.50
2014,07,16,05,03,15.50
2014,07,16,05,04,15.50
2014,07,16,05,05,15.50
2014,07,16,05,06,15.40
2014,07,16,05,07,15.40
2014,07,16,05,08,15.40
2014,07,16,05,09,15.40
2014,07,16,05,10,15.40
2014,07,16,05,11,15.40
2014,07,16,05,12,15.40
2014,07,16,05,13,15.40
2014,07,16,05,14,15.30
2014,07,16,05,15,15.30
2014,07,16,05,16,15.30
2014,07,16,05,17,15.30
2014,07,16,05,18,15.30
2014,07,16,05,19,15.30
2014,07,16,05,20,15.20
2014,07,16,05,21,15.20
2014,07,16,05,22,15.20
2014,07,16,05,23,15.20
2014,07,16,05,24,15.20
2014,07,16,05,25,15.20
2014,07,16,05,26,15.20
2014,07,16,05,27,15.20
2014,07,16,05,28,15.20
2014,07,16,05,29,15.20
2014,07,16,05,30,15.20
2014,07,16,05,31,15.20
2014,07,16,05,32,15.20
2014,07,16,05,33,15.20
2014,07,16,05,34,15.20
2014,07,16,05,35,15.20
2014,07,16,05,36,15.10
2014,07,16,05,37,15.10
2014,07,16,05,38,15.10
2014,07,16,05,39,15.10
2014,07,16,05,40,15.10
2014,07,16,05,41,15.10
2014,07,16,05,42,15.10
2014,07,16,05,43,15.00
2014,07,16,05,44,15.00
2014,07,16,05,45,15.00
2014,07,16,05,46,15.00
2014,07,16,05,47,15.00
2014,07,16,05,48,15.00
2014,07,16,05,49,15.00
2014,07,16,05,50,15.00
2014,07,16,05,51,14.90
2014,07,16,05,52,14.90
2014,07,16,05,53,14.90
2014,07,16,05,54,14.90
2014,07,16,05,55,14.90
2014,07,16,05,56,14.90
2014,07,16,05,57,14.90
2014,07,16,05,58,14.90
2014,07,16,05,59,14.90
2014,07,16,06,00,14.90
2014,07,16,06,01,14.90
2014,07,16,06,02,14.90
2014,07,16,06,03,14.80
2014,07,16,06,04,14.80
2014,07,16,06,05,14.80
2014,07,16,06,06,14.80
2014,07,16,06,07,14.80
2014,07,16,06,08,14.80
2014,07,16,06,09,14.80
2014,07,16,06,10,14.80
2014,07,16,06,11,14.80
2014,07,16,06,12,14.80
2014,07,16,06,13,14.80
2014,07,16,06,14,14.80
2014,07,16,06,15,14.80
2014,07,16,06,16,14.80
2014,07,16,06,17,14.80
2014,07,16,06,18,14.80
2014,07,16,06,19,14.80
2014,07,16,06,20,14.80
2014,07,16,06,21,14.80
2014,07,16,06,22,14.80
2014,07,16,06,23,14.80
2014,07,16,06,24,14.80
2014,07,16,06,25,14.80
2014,07,16,06,26,14.80
2014,07,16,06,27,14.80
2014,07,16,06,28,14.80
2014,07,16,06,29,14.80
2014,07,16,06,30,14.80
2014,07,16,06,31,14.80
2014,07,16,06,32,14.80
2014,07,16,06,33,14.80
2014,07,16,06,34,14.80
2014,07,16,06,35,14.90
2014,07,16,06,36,14.90
2014,07,16,06,37,14.90
2014,07,16,06,38,14.90
2014,07,16,06,39,14.90
2014,07,16,06,40,14.90
2014,07,16,06,41,14.90
2014,07,16,06,42,14.90
2014,07,16,06,43,15.00
2014,07,16,06,44,15.00
2014,07,16,06,45,15.00
2014,07,16,06,46,15.10
2014,07,16,06,47,15.10
2014,07,16,06,48,15.10
2014,07,16,06,49,15.10
2014,07,16,06,50,15.20
2014,07,16,06,51,15.20
2014,07,16,06,52,15.20
2014,07,16,06,53,15.30
2014,07,16,06,54,15.30
2014,07,16,06,55,15.30
2014,07,16,06,56,15.40
2014,07,16,06,57,15.50
2014,07,16,06,58,15.50
2014,07,16,06,59,15.60
2014,07,16,07,00,15.70
2014,07,16,07,01,15.80
2014,07,16,07,02,16.00
2014,07,16,07,03,16.10
2014,07,16,07,04,16.20
2014,07,16,07,05,16.30
2014,07,16,07,06,16.40
2014,07,16,07,07,16.50
2014,07,16,07,08,16.50
2014,07,16,07,09,16.60
2014,07,16,07,10,16.60
2014,07,16,07,11,16.70
2014,07,16,07,12,16.70
2014,07,16,07,13,16.80
2014,07,16,07,14,16.90
2014,07,16,07,15,16.90
2014,07,16,07,16,17.00
2014,07,16,07,17,17.00
2014,07,16,07,18,17.10
2014,07,16,07,19,17.10
2014,07,16,07,20,17.20
2014,07,16,07,21,17.30
2014,07,16,07,22,17.40
2014,07,16,07,23,17.50
2014,07,16,07,24,17.60
2014,07,16,07,25,17.70
2014,07,16,07,26,17.70
2014,07,16,07,27,17.80
2014,07,16,07,28,17.90
2014,07,16,07,29,18.00
2014,07,16,07,30,18.10
2014,07,16,07,31,18.10
2014,07,16,07,32,18.20
2014,07,16,07,33,18.20
2014,07,16,07,34,18.30
2014,07,16,07,35,18.30
2014,07,16,07,36,18.30
2014,07,16,07,37,18.30
2014,07,16,07,38,18.40
2014,07,16,07,39,18.40
2014,07,16,07,40,18.50
2014,07,16,07,41,18.50
2014,07,16,07,42,18.60
2014,07,16,07,43,18.60
2014,07,16,07,44,18.60
2014,07,16,07,45,18.70
2014,07,16,07,46,18.70
2014,07,16,07,47,18.80
2014,07,16,07,48,18.80
2014,07,16,07,49,18.80
2014,07,16,07,50,18.90
2014,07,16,07,51,18.90
2014,07,16,07,52,19.00
2014,07,16,07,53,19.00
2014,07,16,07,54,19.00
2014,07,16,07,55,19.00
2014,07,16,07,56,19.10
2014,07,16,07,57,19.10
2014,07,16,07,58,19.10
2014,07,16,07,59,19.10
2014,07,16,08,00,19.10
2014,07,16,08,01,19.20
2014,07,16,08,02,19.20
2014,07,16,08,03,19.20
2014,07,16,08,04,19.20
2014,07,16,08,05,19.30
2014,07,16,08,06,19.30
2014,07,16,08,07,19.30
2014,07,16,08,08,19.40
2014,07,16,08,09,19.40
2014,07,16,08,10,19.40
2014,07,16,08,11,19.50
2014,07,16,08,12,19.50
2014,07,16,08,13,19.60
2014,07,16,08,14,19.60
2014,07,16,08,15,19.60
2014,07,16,08,16,19.60
2014,07,16,08,17,19.70
2014,07,16,08,18,19.70
2014,07,16,08,19,19.70
2014,07,16,08,20,19.80
2014,07,16,08,21,19.80
2014,07,16,08,22,19.80
2014,07,16,08,23,19.90
2014,07,16,08,24,19.90
2014,07,16,08,25,19.90
2014,07,16,08,26,20.00
2014,07,16,08,27,20.00
2014,07,16,08,28,20.00
2014,07,16,08,29,20.00
2014,07,16,08,30,20.00
2014,07,16,08,31,20.00
2014,07,16,08,32,20.00
2014,07,16,08,33,20.00
2014,07,16,08,34,20.00
2014,07,16,08,35,20.00
2014,07,16,08,36,20.00
2014,07,16,08,37,20.00
2014,07,16,08,38,20.10
2014,07,16,08,39,20.10
2014,07,16,08,40,20.10
2014,07,16,08,41,20.00
2014,07,16,08,42,20.00
2014,07,16,08,43,20.00
2014,07,16,08,44,20.00
2014,07,16,08,45,19.90
2014,07,16,08,46,19.90
2014,07,16,08,47,19.90
2014,07,16,08,48,20.00
2014,07,16,08,49,20.00
2014,07,16,08,50,20.00
2014,07,16,08,51,20.00
2014,07,16,08,52,20.10
2014,07,16,08,53,20.10
2014,07,16,08,54,20.10
2014,07,16,08,55,20.20
2014,07,16,08,56,20.20
2014,07,16,08,57,20.30
2014,07,16,08,58,20.30
2014,07,16,08,59,20.30
2014,07,16,09,00,20.30
2014,07,16,09,01,20.30
2014,07,16,09,02,20.40
2014,07,16,09,03,20.40
2014,07,16,09,04,20.40
2014,07,16,09,05,20.50
2014,07,16,09,06,20.50
2014,07,16,09,07,20.60
2014,07,16,09,08,20.70
2014,07,16,09,09,20.70
2014,07,16,09,10,20.80
2014,07,16,09,11,20.80
2014,07,16,09,12,20.80
2014,07,16,09,13,20.80
2014,07,16,09,14,20.80
2014,07,16,09,15,20.80
2014,07,16,09,16,20.80
2014,07,16,09,17,20.80
2014,07,16,09,18,20.80
2014,07,16,09,19,20.70
2014,07,16,09,20,20.70
2014,07,16,09,21,20.70
2014,07,16,09,22,20.60
2014,07,16,09,23,20.60
2014,07,16,09,24,20.50
2014,07,16,09,25,20.40
2014,07,16,09,26,20.40
2014,07,16,09,27,20.50
2014,07,16,09,28,20.50
2014,07,16,09,29,20.60
2014,07,16,09,30,20.60
2014,07,16,09,31,20.60
2014,07,16,09,32,20.60
2014,07,16,09,33,20.60
2014,07,16,09,34,20.50
2014,07,16,09,35,20.50
2014,07,16,09,36,20.50
2014,07,16,09,37,20.60
2014,07,16,09,38,20.70
2014,07,16,09,39,20.70
2014,07,16,09,40,20.70
2014,07,16,09,41,20.70
2014,07,16,09,42,20.60
2014,07,16,09,43,20.60
2014,07,16,09,44,20.60
2014,07,16,09,45,20.70
2014,07,16,09,46,20.70
2014,07,16,09,47,20.70
2014,07,16,09,48,20.70
2014,07,16,09,49,20.80
2014,07,16,09,50,20.80
2014,07,16,09,51,20.80
2014,07,16,09,52,20.80
2014,07,16,09,53,20.80
2014,07,16,09,54,20.80
2014,07,16,09,55,20.80
2014,07,16,09,56,20.80
2014,07,16,09,57,20.80
2014,07,16,09,58,20.80
2014,07,16,09,59,20.80
2014,07,16,10,00,20.80
2014,07,16,10,01,20.80
2014,07,16,10,02,20.80
2014,07,16,10,03,20.80
2014,07,16,10,04,20.80
2014,07,16,10,05,20.80
2014,07,16,10,06,20.90
2014,07,16,10,07,20.90
2014,07,16,10,08,21.00
2014,07,16,10,09,21.00
2014,07,16,10,10,21.00
2014,07,16,10,11,21.00
2014,07,16,10,12,21.00
2014,07,16,10,13,21.10
2014,07,16,10,14,21.10
2014,07,16,10,15,21.10
2014,07,16,10,16,21.20
2014,07,16,10,17,21.20
2014,07,16,10,18,21.20
2014,07,16,10,19,21.20
2014,07,16,10,20,21.30
2014,07,16,10,21,21.30
2014,07,16,10,22,21.30
2014,07,16,10,23,21.30
2014,07,16,10,24,21.40
2014,07,16,10,25,21.40
2014,07,16,10,26,21.40
2014,07,16,10,27,21.40
2014,07,16,10,28,21.50
2014,07,16,10,29,21.50
2014,07,16,10,30,21.60
2014,07,16,10,31,21.60
2014,07,16,10,32,21.70
2014,07,16,10,33,21.70
2014,07,16,10,34,21.70
2014,07,16,10,35,21.60
2014,07,16,10,36,21.60
2014,07,16,10,37,21.60
2014,07,16,10,38,21.60
2014,07,16,10,39,21.60
2014,07,16,10,40,21.60
2014,07,16,10,41,21.70
2014,07,16,10,42,21.60
2014,07,16,10,43,21.50
2014,07,16,10,44,21.50
2014,07,16,10,45,21.50
2014,07,16,10,46,21.60
2014,07,16,10,47,21.70
2014,07,16,10,48,21.80
2014,07,16,10,49,21.80
2014,07,16,10,50,21.80
2014,07,16,10,51,21.80
2014,07,16,10,52,21.80
2014,07,16,10,53,21.80
2014,07,16,10,54,21.80
2014,07,16,10,55,21.70
2014,07,16,10,56,21.70
2014,07,16,10,57,21.70
2014,07,16,10,58,21.80
2014,07,16,10,59,21.80
2014,07,16,11,00,21.90
2014,07,16,11,01,22.00
2014,07,16,11,02,22.00
2014,07,16,11,03,22.10
2014,07,16,11,04,22.10
2014,07,16,11,05,22.20
2014,07,16,11,06,22.20
2014,07,16,11,07,22.30
2014,07,16,11,08,22.30
2014,07,16,11,09,22.20
2014,07,16,11,10,22.20
2014,07,16,11,11,22.20
2014,07,16,11,12,22.20
2014,07,16,11,13,22.10
2014,07,16,11,14,22.10
2014,07,16,11,15,22.10
2014,07,16,11,16,22.10
2014,07,16,11,17,22.20
2014,07,16,11,18,22.20
2014,07,16,11,19,22.30
2014,07,16,11,20,22.20
2014,07,16,11,21,22.20
2014,07,16,11,22,22.20
2014,07,16,11,23,22.20
2014,07,16,11,24,22.20
2014,07,16,11,25,22.20
2014,07,16,11,26,22.20
2014,07,16,11,27,22.20
2014,07,16,11,28,22.30
2014,07,16,11,29,22.30
2014,07,16,11,30,22.30
2014,07,16,11,31,22.30
2014,07,16,11,32,22.30
2014,07,16,11,33,22.20
2014,07,16,11,34,22.20
2014,07,16,11,35,22.30
2014,07,16,11,36,22.30
2014,07,16,11,37,22.30
2014,07,16,11,38,22.30
2014,07,16,11,39,22.30
2014,07,16,11,40,22.30
2014,07,16,11,41,22.30
2014,07,16,11,42,22.30
2014,07,16,11,43,22.30
2014,07,16,11,44,22.40
2014,07,16,11,45,22.30
2014,07,16,11,46,22.30
2014,07,16,11,47,22.40
2014,07,16,11,48,22.50
2014,07,16,11,49,22.50
2014,07,16,11,50,22.60
2014,07,16,11,51,22.60
2014,07,16,11,52,22.70
2014,07,16,11,53,22.70
2014,07,16,11,54,22.70
2014,07,16,11,55,22.70
2014,07,16,11,56,22.60
2014,07,16,11,57,22.60
2014,07,16,11,58,22.60
2014,07,16,11,59,22.70
2014,07,16,12,00,22.70
2014,07,16,12,01,22.80
2014,07,16,12,02,22.90
2014,07,16,12,03,23.00
2014,07,16,12,04,23.10
2014,07,16,12,05,23.10
2014,07,16,12,06,23.20
2014,07,16,12,07,23.30
2014,07,16,12,08,23.40
2014,07,16,12,09,23.50
2014,07,16,12,10,23.60
2014,07,16,12,11,23.60
2014,07,16,12,12,23.60
2014,07,16,12,13,23.60
2014,07,16,12,14,23.60
2014,07,16,12,15,23.60
2014,07,16,12,16,23.70
2014,07,16,12,17,23.80
2014,07,16,12,18,23.80
2014,07,16,12,19,23.70
2014,07,16,12,20,23.70
2014,07,16,12,21,23.60
2014,07,16,12,22,23.60
2014,07,16,12,23,23.70
2014,07,16,12,24,23.70
2014,07,16,12,25,23.70
2014,07,16,12,26,23.80
2014,07,16,12,27,23.80
2014,07,16,12,28,23.80
2014,07,16,12,29,23.80
2014,07,16,12,30,23.80
2014,07,16,12,31,23.80
2014,07,16,12,32,23.80
2014,07,16,12,33,23.90
2014,07,16,12,34,23.90
2014,07,16,12,35,23.90
2014,07,16,12,36,23.90
2014,07,16,12,37,24.00
2014,07,16,12,38,24.10
2014,07,16,12,39,24.10
2014,07,16,12,40,24.10
2014,07,16,12,41,24.10
2014,07,16,12,42,24.10
2014,07,16,12,43,24.00
2014,07,16,12,44,23.80
2014,07,16,12,45,23.80
2014,07,16,12,46,23.90
2014,07,16,12,47,23.90
2014,07,16,12,48,24.00
2014,07,16,12,49,24.10
2014,07,16,12,50,24.20
2014,07,16,12,51,24.20
2014,07,16,12,52,24.20
2014,07,16,12,53,24.30
2014,07,16,12,54,24.40
2014,07,16,12,55,24.40
2014,07,16,12,56,24.50
2014,07,16,12,57,24.60
2014,07,16,12,58,24.60
2014,07,16,12,59,24.60
2014,07,16,13,00,24.60
2014,07,16,13,01,24.60
2014,07,16,13,02,24.60
2014,07,16,13,03,24.60
2014,07,16,13,04,24.50
2014,07,16,13,05,24.40
2014,07,16,13,06,24.40
2014,07,16,13,07,24.40
2014,07,16,13,08,24.40
2014,07,16,13,09,24.30
2014,07,16,13,10,24.40
2014,07,16,13,11,24.40
2014,07,16,13,12,24.50
2014,07,16,13,13,24.60
2014,07,16,13,14,24.60
2014,07,16,13,15,24.70
2014,07,16,13,16,24.70
2014,07,16,13,17,24.70
2014,07,16,13,18,24.70
2014,07,16,13,19,24.70
2014,07,16,13,20,24.70
2014,07,16,13,21,24.70
2014,07,16,13,22,24.70
2014,07,16,13,23,24.70
2014,07,16,13,24,24.80
2014,07,16,13,25,24.90
2014,07,16,13,26,24.90
2014,07,16,13,27,24.90
2014,07,16,13,28,24.90
2014,07,16,13,29,24.80
2014,07,16,13,30,24.90
2014,07,16,13,31,24.90
2014,07,16,13,32,24.90
2014,07,16,13,33,24.90
2014,07,16,13,34,24.90
2014,07,16,13,35,25.00
2014,07,16,13,36,25.00
2014,07,16,13,37,25.00
2014,07,16,13,38,25.10
2014,07,16,13,39,25.20
2014,07,16,13,40,25.40
2014,07,16,13,41,25.50
2014,07,16,13,42,25.60
2014,07,16,13,43,25.60
2014,07,16,13,44,25.70
2014,07,16,13,45,25.80
2014,07,16,13,46,25.80
2014,07,16,13,47,25.80
2014,07,16,13,48,25.80
2014,07,16,13,49,25.80
2014,07,16,13,50,25.70
2014,07,16,13,51,25.60
2014,07,16,13,52,25.50
2014,07,16,13,53,25.40
2014,07,16,13,54,25.40
2014,07,16,13,55,25.40
2014,07,16,13,56,25.50
2014,07,16,13,57,25.40
2014,07,16,13,58,25.40
2014,07,16,13,59,25.40
2014,07,16,14,00,25.40
2014,07,16,14,01,25.60
2014,07,16,14,02,25.80
2014,07,16,14,03,25.90
2014,07,16,14,04,26.00
2014,07,16,14,05,26.10
2014,07,16,14,06,26.20
2014,07,16,14,07,26.30
2014,07,16,14,08,26.30
2014,07,16,14,09,26.40
2014,07,16,14,10,26.40
2014,07,16,14,11,26.30
2014,07,16,14,12,26.20
2014,07,16,14,13,26.30
2014,07,16,14,14,26.30
2014,07,16,14,15,26.30
2014,07,16,14,16,26.30
2014,07,16,14,17,26.30
2014,07,16,14,18,26.20
2014,07,16,14,19,26.20
2014,07,16,14,20,26.20
2014,07,16,14,21,26.20
2014,07,16,14,22,26.10
2014,07,16,14,23,26.00
2014,07,16,14,24,25.80
2014,07,16,14,25,25.90
2014,07,16,14,26,25.90
2014,07,16,14,27,26.00
2014,07,16,14,28,26.00
2014,07,16,14,29,26.10
2014,07,16,14,30,26.20
2014,07,16,14,31,26.30
2014,07,16,14,32,26.30
2014,07,16,14,33,26.40
2014,07,16,14,34,26.40
2014,07,16,14,35,26.30
2014,07,16,14,36,26.30
2014,07,16,14,37,26.40
2014,07,16,14,38,26.50
2014,07,16,14,39,26.60
2014,07,16,14,40,26.60
2014,07,16,14,41,26.60
2014,07,16,14,42,26.50
2014,07,16,14,43,26.40
2014,07,16,14,44,26.20
2014,07,16,14,45,26.20
2014,07,16,14,46,26.20
2014,07,16,14,47,26.30
2014,07,16,14,48,26.50
2014,07,16,14,49,26.60
2014,07,16,14,50,26.70
2014,07,16,14,51,26.80
2014,07,16,14,52,26.90
2014,07,16,14,53,26.90
2014,07,16,14,54,26.90
2014,07,16,14,55,26.90
2014,07,16,14,56,26.90
2014,07,16,14,57,26.80
2014,07,16,14,58,26.70
2014,07,16,14,59,26.70
2014,07,16,15,00,26.70
2014,07,16,15,01,26.60
2014,07,16,15,02,26.50
2014,07,16,15,03,26.40
2014,07,16,15,04,26.30
2014,07,16,15,05,26.20
2014,07,16,15,06,26.00
2014,07,16,15,07,26.00
2014,07,16,15,08,26.10
2014,07,16,15,09,26.20
2014,07,16,15,10,26.20
2014,07,16,15,11,26.20
2014,07,16,15,12,26.30
2014,07,16,15,13,26.40
2014,07,16,15,14,26.60
2014,07,16,15,15,26.70
2014,07,16,15,16,26.80
2014,07,16,15,17,26.80
2014,07,16,15,18,26.80
2014,07,16,15,19,26.80
2014,07,16,15,20,26.70
2014,07,16,15,21,26.60
2014,07,16,15,22,26.60
2014,07,16,15,23,26.60
2014,07,16,15,24,26.70
2014,07,16,15,25,26.80
2014,07,16,15,26,26.90
2014,07,16,15,27,27.00
2014,07,16,15,28,27.20
2014,07,16,15,29,27.30
2014,07,16,15,30,27.40
2014,07,16,15,31,27.50
2014,07,16,15,32,27.60
2014,07,16,15,33,27.70
2014,07,16,15,34,27.50
2014,07,16,15,35,27.30
2014,07,16,15,36,27.30
2014,07,16,15,37,27.30
2014,07,16,15,38,27.40
2014,07,16,15,39,27.40
2014,07,16,15,40,27.30
2014,07,16,15,41,27.20
2014,07,16,15,42,27.00
2014,07,16,15,43,26.90
2014,07,16,15,44,26.90
2014,07,16,15,45,26.90
2014,07,16,15,46,26.90
2014,07,16,15,47,26.90
2014,07,16,15,48,26.90
2014,07,16,15,49,27.00
2014,07,16,15,50,27.10
2014,07,16,15,51,27.10
2014,07,16,15,52,27.10
2014,07,16,15,53,27.00
2014,07,16,15,54,26.90
2014,07,16,15,55,26.80
2014,07,16,15,56,26.70
2014,07,16,15,57,26.70
2014,07,16,15,58,26.70
2014,07,16,15,59,26.70
2014,07,16,16,00,26.80
2014,07,16,16,01,26.70
2014,07,16,16,02,26.80
2014,07,16,16,03,26.90
2014,07,16,16,04,26.90
2014,07,16,16,05,27.00
2014,07,16,16,06,27.10
2014,07,16,16,07,27.10
2014,07,16,16,08,27.20
2014,07,16,16,09,27.30
2014,07,16,16,10,27.30
2014,07,16,16,11,27.40
2014,07,16,16,12,27.50
2014,07,16,16,13,27.50
2014,07,16,16,14,27.60
2014,07,16,16,15,27.60
2014,07,16,16,16,27.90
2014,07,16,16,17,28.00
2014,07,16,16,18,27.90
2014,07,16,16,19,28.00
2014,07,16,16,20,28.00
2014,07,16,16,21,28.00
2014,07,16,16,22,28.00
2014,07,16,16,23,28.00
2014,07,16,16,24,28.10
2014,07,16,16,25,28.10
2014,07,16,16,26,28.00
2014,07,16,16,27,27.90
2014,07,16,16,28,27.80
2014,07,16,16,29,27.70
2014,07,16,16,30,27.60
2014,07,16,16,31,27.50
2014,07,16,16,32,27.50
2014,07,16,16,33,27.60
2014,07,16,16,34,27.60
2014,07,16,16,35,27.60
2014,07,16,16,36,27.60
2014,07,16,16,37,27.60
2014,07,16,16,38,27.60
2014,07,16,16,39,27.60
2014,07,16,16,40,27.50
2014,07,16,16,41,27.50
2014,07,16,16,42,27.50
2014,07,16,16,43,27.60
2014,07,16,16,44,27.70
2014,07,16,16,45,27.70
2014,07,16,16,46,27.60
2014,07,16,16,47,27.60
2014,07,16,16,48,27.50
2014,07,16,16,49,27.40
2014,07,16,16,50,27.30
2014,07,16,16,51,27.30
2014,07,16,16,52,27.30
2014,07,16,16,53,27.30
2014,07,16,16,54,27.30
2014,07,16,16,55,27.30
2014,07,16,16,56,27.30
2014,07,16,16,57,27.30
2014,07,16,16,58,27.40
2014,07,16,16,59,27.50
2014,07,16,17,00,27.60
2014,07,16,17,01,27.70
2014,07,16,17,02,27.80
2014,07,16,17,03,27.90
2014,07,16,17,04,28.00
2014,07,16,17,05,28.10
2014,07,16,17,06,28.00
2014,07,16,17,07,27.90
2014,07,16,17,08,27.90
2014,07,16,17,09,27.80
2014,07,16,17,10,27.90
2014,07,16,17,11,27.90
2014,07,16,17,12,28.00
2014,07,16,17,13,28.00
2014,07,16,17,14,28.10
2014,07,16,17,15,28.10
2014,07,16,17,16,28.10
2014,07,16,17,17,28.10
2014,07,16,17,18,28.10
2014,07,16,17,19,28.00